Meath Environmental Platform

Observations for Trim Market St

Time AQI Temp °C Hum % Pres Pa CO μg/m³ H₂S μg/m³ NO μg/m³ NO₂ μg/m³ O₃ μg/m³ SO₂ μg/m³ PM1 μg/m³ PM2.5 μg/m³ PM10 μg/m³
Tuesday 11 August 2026
10:25 1 35.6 29 66,550 0 0 0.31 13.09 75.9 0 0.71 3.37 3.7
10:23 1 35.4 29 66,519 0 0 0.35 11.28 75.08 0 0.71 3.9 4.29
10:22 1 35.3 29 66,541 0 0 0.35 7.62 37.57 0 0 3.34 3.67
10:21 1 35.3 30 66,543 0 0 0.35 11.94 69.25 0 0 3.33 3.66
10:20 1 35.2 30 66,513 0 0 0.37 11.55 51.23 0 0.71 3.86 4.24
10:19 1 35.1 30 66,503 0 0 0.37 12.41 57.89 0 0 2.75 3.03
10:18 1 35 31 66,489 0 0 0.36 11.35 63.99 0 0.71 3.27 3.6
10:17 1 34.9 31 66,476 0 0 0.37 12.1 71.24 0 0 2.72 2.99
10:16 1 34.8 31 66,485 0 0 0.38 12.94 75.29 0 0 2.72 2.99
10:15 1 34.7 31 66,474 0 0 0.42 12.57 60.04 0 0.71 3.81 4.19
10:14 1 34.7 31 66,455 0 0 0.42 11.89 58.22 0 0.71 4.36 4.79
10:12 1 34.6 31 66,437 0 0 0.43 12.7 70.97 0 0.71 3.81 4.19
10:11 1 34.6 31 66,416 0 0 0.44 10.88 57.34 0 0.71 3.82 4.2
10:09 1 34.5 31 66,420 0 0 0.42 11.95 53.63 0 0 3.27 3.59
10:07 1 34.4 32 66,400 0.03 0 0.41 11.93 55.34 0 0 3.78 4.16
10:06 1 34.4 31 66,398 0 0 0.41 9.79 43.78 0 0 3.25 3.58
10:05 1 34.4 31 66,394 0 0 0.43 10.44 57 0 0 3.25 3.58
10:04 1 34.3 32 66,392 0 0 0.43 11.78 57.15 0 0.71 3.79 4.17
10:03 1 34.3 32 66,388 0 0 0.44 11.86 49.33 0 0.71 3.24 3.57
10:02 1 34.3 32 66,384 0 0 0.42 12.39 52.54 0 0.71 3.77 4.15